Location: Caltech
(34.1382°N, 118.1253°W)
Time: 19:33:41
(UTC-07:00)

Aureole 3 Rocket - Visible Passes

Search period start: 23 July 2017 00:00
Search period end: 02 August 2017 00:00
Orbit: 399 x 1744 km, 82.5° (Epoch: 22 July)

Date Brightness Start Highest point End Pass type
(mag) Time Alt. Az. Time Alt. Az. Time Alt. Az.
23 Jul 6.0 00:19:27 10° NNE 00:28:29 35° ENE 00:30:44 32° E visible
23 Jul 5.2 02:06:23 10° NNW 02:16:21 60° W 02:17:26 57° WSW visible
23 Jul 6.8 04:00:00 10° WNW 04:01:53 11° WNW 04:03:46 10° W visible
23 Jul 6.7 23:28:19 10° NNE 23:34:35 18° ENE 23:37:54 15° E visible
24 Jul 5.0 01:13:14 10° N 01:23:34 78° E 01:24:37 72° SE visible
24 Jul 6.2 03:02:24 10° NNW 03:10:02 25° W 03:11:19 24° W visible
25 Jul 5.7 00:20:40 10° N 00:30:18 43° ENE 00:31:48 41° E visible
25 Jul 5.4 02:08:10 10° NNW 02:17:49 48° W 02:18:31 48° W visible
25 Jul 6.5 23:29:01 10° NNE 23:36:32 22° ENE 23:39:02 21° E visible
26 Jul 5.0 01:14:47 10° N 01:25:12 87° W 01:25:44 82° SSW visible
26 Jul 6.4 03:04:50 10° NW 03:11:14 19° WNW 03:12:26 19° W visible
27 Jul 5.4 00:22:02 10° N 00:32:04 53° ENE 00:32:57 52° E visible
27 Jul 5.7 02:10:03 10° NNW 02:19:12 39° W 02:19:40 38° W visible
27 Jul 6.2 23:30:01 10° NNE 23:38:25 28° ENE 23:40:11 27° E visible
28 Jul 5.0 01:16:26 10° N 01:26:45 72° W 01:26:55 72° W visible
28 Jul 6.7 03:07:46 10° NW 03:12:22 14° WNW 03:13:37 14° W visible
28 Jul 6.8 22:39:49 10° NE 22:44:12 13° ENE 22:47:27 11° E visible
29 Jul 5.1 00:23:29 10° N 00:33:48 65° E 00:34:10 64° E visible
29 Jul 6.0 02:12:05 10° NNW 02:20:29 30° W 02:20:52 30° W visible
29 Jul 5.9 23:31:11 10° N 23:40:17 34° ENE 23:41:26 34° E visible
30 Jul 5.2 01:18:12 10° NNW 01:28:08 58° W 01:28:08 58° W visible
30 Jul 6.6 22:40:06 10° NNE 22:46:12 17° ENE 22:48:41 16° E visible
31 Jul 5.0 00:25:02 10° N 00:35:25 78° E 00:35:25 78° E visible
31 Jul 6.3 02:14:21 10° NNW 02:21:42 24° WNW 02:22:07 23° W visible
31 Jul 5.6 23:32:31 10° N 23:42:05 42° ENE 23:42:41 42° E visible
01 Aug 5.5 01:20:03 10° NNW 01:29:23 46° W 01:29:23 46° W visible
01 Aug 6.3 22:40:54 10° NNE 22:48:09 22° ENE 22:49:58 20° E visible
